Van Kinsbergen — PAKB — position and weather

sailwx.info

Track history (hours):
 
Tides and Currents Weather Stations Pressure Air Temp Water Temp Dewpoint Dewpoint Depression Visibility Wind Speed Wind Dir Waves Ship Positions

Van Kinsbergen

Last reported at 2014-Oct-25 03:29 UTC. Time now 2014-Oct-25 23:36 UTC.
Position N 55°03' E 010°03'.

Length 40 m; draft 3.1 m.

MMSI: 244736000.

Date/timePositionNaut miles runAvg speedWind from/ knotsBaromVisibWave heightAir tempDewpointWater temp
2014-Oct-25 03:29N 55°03' E 010°03'8 8.2
2014-Oct-25 02:33N 55°08' E 009°54'30 1.9
2014-Oct-24 10:32N 54°42' E 010°15'1010.2
2014-Oct-24 09:31N 54°47' E 010°00'8 8.6
2014-Oct-24 08:34N 54°52' E 009°48'3 2.8
2014-Oct-24 07:27N 54°55' E 009°47'0 0.0
2014-Oct-24 06:27N 54°55' E 009°47'0 0.0
2014-Oct-24 05:30N 54°55' E 009°47'0 0.0
2014-Oct-24 04:30N 54°55' E 009°47'0 0.0
2014-Oct-24 03:33N 54°55' E 009°47'0 0.0
2014-Oct-24 02:33N 54°55' E 009°47'0 0.0
2014-Oct-24 01:33N 54°55' E 009°47'0 0.0
2014-Oct-24 00:33N 54°55' E 009°47'0 0.0
2014-Oct-23 23:21N 54°55' E 009°47'0 0.0
2014-Oct-23 22:33N 54°55' E 009°47'0 0.0
2014-Oct-23 21:24N 54°55' E 009°47'0 0.0
2014-Oct-23 20:24N 54°55' E 009°47'0 0.0
2014-Oct-23 19:27N 54°55' E 009°47'0 0.0
2014-Oct-23 18:27N 54°55' E 009°47'0 0.0
2014-Oct-23 17:30N 54°55' E 009°47'0 0.0
2014-Oct-23 16:27N 54°55' E 009°47'0 0.0
2014-Oct-23 15:30N 54°55' E 009°47'0 0.0
2014-Oct-23 14:33N 54°55' E 009°47'0 0.0
2014-Oct-23 13:33N 54°55' E 009°47'0 0.0
2014-Oct-23 12:33N 54°55' E 009°47'0 0.0
2014-Oct-23 11:33N 54°55' E 009°47'0 0.0
2014-Oct-23 10:33N 54°55' E 009°47'0 0.0
2014-Oct-23 09:33N 54°55' E 009°47'0 0.0
2014-Oct-23 08:33N 54°55' E 009°47'5 4.7
2014-Oct-23 07:33N 54°50' E 009°49'8 7.4
2014-Oct-23 06:29N 54°53' E 009°36'9 2.2
2014-Oct-23 02:33N 54°50' E 009°50'21 1.3
2014-Oct-22 10:21N 55°11' E 009°48'1110.8
2014-Oct-22 09:19N 55°04' E 010°03'18 9.6
2014-Oct-22 07:26N 54°46' E 010°03'1010.2
2014-Oct-22 06:25N 54°52' E 009°48'4 0.7
2014-Oct-22 00:33N 54°54' E 009°43'0 0.0
2014-Oct-21 23:32N 54°54' E 009°43'3 0.4
2014-Oct-21 17:33N 54°53' E 009°47'1611.7
2014-Oct-21 16:12N 54°42' E 010°08'812.2
2014-Oct-21 15:33N 54°35' E 010°14'1010.5
2014-Oct-21 14:33N 54°25' E 010°13'5 4.8
2014-Oct-21 13:33N 54°22' E 010°06'8 8.3
2014-Oct-21 12:33N 54°22' E 009°52'38 7.2
2014-Oct-21 07:19N 53°54' E 009°09'1 1.8
2014-Oct-21 06:33N 53°53' E 009°06'5 5.4
2014-Oct-21 05:33N 53°51' E 008°58'8 8.4
2014-Oct-21 04:33N 53°52' E 008°44'9 8.5
2014-Oct-21 03:33N 53°58' E 008°34'9 8.7
2014-Oct-21 02:33N 53°60' E 008°19'1010.2
2014-Oct-21 01:33N 53°58' E 008°02'7811.2
2014-Oct-20 18:32N 53°39' E 005°54'1313.1
2014-Oct-20 17:34N 53°35' E 005°33'1413.5
2014-Oct-20 16:34N 53°30' E 005°12'1413.7
2014-Oct-20 15:32N 53°25' E 004°50'30 9.6
2014-Oct-20 12:23N 52°55' E 004°40'5 5.1
2014-Oct-20 11:27N 52°58' E 004°47'0 0.0
2014-Oct-20 10:33N 52°58' E 004°47'2 1.6
2014-Oct-20 09:33N 52°59' E 004°45'2 1.3
2014-Oct-20 08:19N 52°58' E 004°47'0 0.0
2014-Oct-20 07:31N 52°58' E 004°47'0 0.0
2014-Oct-20 06:31N 52°58' E 004°47'0 0.0
2014-Oct-20 05:22N 52°58' E 004°47'0 0.0
2014-Oct-20 04:25N 52°58' E 004°47'0 0.0
2014-Oct-20 03:25N 52°58' E 004°47'0 0.0
2014-Oct-20 02:25N 52°58' E 004°47'0 0.0
2014-Oct-20 01:28N 52°58' E 004°47'0 0.0
2014-Oct-20 00:28N 52°58' E 004°47'0 0.0
2014-Oct-19 23:28N 52°58' E 004°47'0 0.0
2014-Oct-19 22:31N 52°58' E 004°47'0 0.0
2014-Oct-19 21:31N 52°58' E 004°47'0 0.0
2014-Oct-19 20:31N 52°58' E 004°47'0 0.0
2014-Oct-19 19:28N 52°58' E 004°47'0 0.0
2014-Oct-19 18:31N 52°58' E 004°47'0 0.0
2014-Oct-19 17:31N 52°58' E 004°47'0 0.0
2014-Oct-19 16:31N 52°58' E 004°47'0 0.0
2014-Oct-19 15:07N 52°58' E 004°47'0 0.0
2014-Oct-19 14:22N 52°58' E 004°47'0 0.0
2014-Oct-19 13:31N 52°58' E 004°47'0 0.0
2014-Oct-19 12:25N 52°58' E 004°47'0 0.0
2014-Oct-19 11:25N 52°58' E 004°47'0 0.0
2014-Oct-19 09:28N 52°58' E 004°47'0 0.0
2014-Oct-19 08:31N 52°58' E 004°47'0 0.0
2014-Oct-19 07:25N 52°58' E 004°47'0 0.0
2014-Oct-19 06:31N 52°58' E 004°47'0 0.0
2014-Oct-19 05:31N 52°58' E 004°47'0 0.0
2014-Oct-19 04:31N 52°58' E 004°47'0 0.0
2014-Oct-19 03:31N 52°58' E 004°47'0 0.0
2014-Oct-19 02:31N 52°58' E 004°47'0 0.0
2014-Oct-19 01:19N 52°58' E 004°47'0 0.0
2014-Oct-19 00:19N 52°58' E 004°47'0 0.0
2014-Oct-18 23:25N 52°58' E 004°47'0 0.0
2014-Oct-18 22:25N 52°58' E 004°47'0 0.0
2014-Oct-18 21:25N 52°58' E 004°47'0 0.0
2014-Oct-18 20:28N 52°58' E 004°47'0 0.0
2014-Oct-18 19:28N 52°58' E 004°47'0 0.0
2014-Oct-18 18:31N 52°58' E 004°47'0 0.0
2014-Oct-18 17:31N 52°58' E 004°47'0 0.0
2014-Oct-18 15:31N 52°58' E 004°47'0 0.0
2014-Oct-18 14:31N 52°58' E 004°47'0 0.0
2014-Oct-18 13:31N 52°58' E 004°47'0 0.0
2014-Oct-18 12:22N 52°58' E 004°47'0 0.0
2014-Oct-18 11:19N 52°58' E 004°47'0 0.0
2014-Oct-18 10:22N 52°58' E 004°47'0 0.0
2014-Oct-18 09:25N 52°58' E 004°47'0 0.0
2014-Oct-18 08:25N 52°58' E 004°47'0 0.0
2014-Oct-18 07:28N 52°58' E 004°47'0 0.0
2014-Oct-18 06:28N 52°58' E 004°47'0 0.0
2014-Oct-18 05:28N 52°58' E 004°47'0 0.0
2014-Oct-18 04:28N 52°58' E 004°47'0 0.0
2014-Oct-18 03:28N 52°58' E 004°47'0 0.0
2014-Oct-18 02:31N 52°58' E 004°47'0 0.0
2014-Oct-18 01:31N 52°58' E 004°47'0 0.0
2014-Oct-18 00:04N 52°58' E 004°47'0 0.0
2014-Oct-17 23:31N 52°58' E 004°47'0 0.0
2014-Oct-17 22:31N 52°58' E 004°47'0 0.0
2014-Oct-17 21:22N 52°58' E 004°47'0 0.0
2014-Oct-17 20:25N 52°58' E 004°47'0 0.0
2014-Oct-17 19:25N 52°58' E 004°47'0 0.0
2014-Oct-17 18:25N 52°58' E 004°47'0 0.0
2014-Oct-17 17:25N 52°58' E 004°47'0 0.0
2014-Oct-17 16:28N 52°58' E 004°47'0 0.0
2014-Oct-17 15:28N 52°58' E 004°47'0 0.0
2014-Oct-17 14:31N 52°58' E 004°47'2 1.6
2014-Oct-17 13:33N 52°59' E 004°47'0 0.3
2014-Oct-17 12:24N 52°59' E 004°48'3 3.0
2014-Oct-17 11:31N 52°58' E 004°44'2 1.5
2014-Oct-17 10:20N 52°58' E 004°47'0 0.0
2014-Oct-17 09:33N 52°58' E 004°47'2 1.9
2014-Oct-17 08:33N 52°58' E 004°44'2 2.3
2014-Oct-17 07:33N 52°59' E 004°47'1 0.6
2014-Oct-17 06:32N 52°59' E 004°47'2 1.9
2014-Oct-17 05:31N 52°58' E 004°47'0 0.0
2014-Oct-17 04:22N 52°58' E 004°47'0 0.0
2014-Oct-17 03:31N 52°58' E 004°47'0 0.0
2014-Oct-17 02:22N 52°58' E 004°47'0 0.0
2014-Oct-17 01:22N 52°58' E 004°47'0 0.0
2014-Oct-17 00:25N 52°58' E 004°47'0 0.0
2014-Oct-16 23:25N 52°58' E 004°47'0 0.0
2014-Oct-16 22:28N 52°58' E 004°47'0 0.0
2014-Oct-16 21:28N 52°58' E 004°47'0 0.0
2014-Oct-16 20:25N 52°58' E 004°47'0 0.0
2014-Oct-16 19:31N 52°58' E 004°47'0 0.0
2014-Oct-16 18:31N 52°58' E 004°47'0 0.0
2014-Oct-16 17:31N 52°58' E 004°47'0 0.0
2014-Oct-16 16:31N 52°58' E 004°47'0 0.0
2014-Oct-16 15:31N 52°58' E 004°47'0 0.0
2014-Oct-16 14:31N 52°58' E 004°47'1 1.3
2014-Oct-16 13:33N 52°59' E 004°46'1 1.0
2014-Oct-16 12:33N 52°58' E 004°47'1 1.0
2014-Oct-16 11:33N 52°59' E 004°46'2 1.4
2014-Oct-16 10:28N 52°58' E 004°47'0 0.2
2014-Oct-16 09:34N 52°58' E 004°47'1 1.0
2014-Oct-16 08:25N 52°58' E 004°46'1 1.2
2014-Oct-16 07:33N 52°58' E 004°47'2 1.6
2014-Oct-16 06:32N 52°59' E 004°47'2 1.7
2014-Oct-16 05:30N 52°58' E 004°47'0 0.0
2014-Oct-16 04:30N 52°58' E 004°47'0 0.0
2014-Oct-16 03:33N 52°58' E 004°47'0 0.0
2014-Oct-16 02:33N 52°58' E 004°47'0 0.0
2014-Oct-16 01:33N 52°58' E 004°47'0 0.0
2014-Oct-16 00:30N 52°58' E 004°47'0 0.0
2014-Oct-15 23:33N 52°58' E 004°47'0 0.0
2014-Oct-15 22:24N 52°58' E 004°47'0 0.0
2014-Oct-15 21:33N 52°58' E 004°47'0 0.0
2014-Oct-15 20:24N 52°58' E 004°47'0 0.0
2014-Oct-15 19:27N 52°58' E 004°47'0 0.0
2014-Oct-15 18:27N 52°58' E 004°47'0 0.0
2014-Oct-15 17:27N 52°58' E 004°47'0 0.0
2014-Oct-15 16:30N 52°58' E 004°47'0 0.0
2014-Oct-15 15:30N 52°58' E 004°47'0 0.0
2014-Oct-15 14:30N 52°58' E 004°47'0 0.3
2014-Oct-15 13:33N 52°58' E 004°47'0 0.2
2014-Oct-15 12:32N 52°57' E 004°48'0 0.2
2014-Oct-15 11:33N 52°58' E 004°47'0 0.2
2014-Oct-15 10:31N 52°58' E 004°47'0 0.2
2014-Oct-15 09:33N 52°58' E 004°47'0 0.3
2014-Oct-15 08:33N 52°57' E 004°48'0 0.2
2014-Oct-15 07:33N 52°57' E 004°47'0 0.4
2014-Oct-15 06:29N 52°58' E 004°47'0 0.0
2014-Oct-15 05:29N 52°58' E 004°47'0 0.0
2014-Oct-15 04:32N 52°58' E 004°47'0 0.0
2014-Oct-15 03:32N 52°58' E 004°47'  
Track history (hours):
 
Tides and Currents Weather Stations Pressure Air Temp Water Temp Dewpoint Dewpoint Depression Visibility Wind Speed Wind Dir Waves Ship Positions

Van Kinsbergen

Last reported at 2014-Oct-25 03:29 UTC. Time now 2014-Oct-25 23:36 UTC.
Position N 55°03' E 010°03'.

Length 40 m; draft 3.1 m.

MMSI: 244736000.

Date/timePositionNaut miles runAvg speedWind from/ knotsBaromVisibWave heightAir tempDewpointWater temp
2014-Oct-25 03:29N 55°03' E 010°03'8 8.2
2014-Oct-25 02:33N 55°08' E 009°54'30 1.9
2014-Oct-24 10:32N 54°42' E 010°15'1010.2
2014-Oct-24 09:31N 54°47' E 010°00'8 8.6
2014-Oct-24 08:34N 54°52' E 009°48'3 2.8
2014-Oct-24 07:27N 54°55' E 009°47'0 0.0
2014-Oct-24 06:27N 54°55' E 009°47'0 0.0
2014-Oct-24 05:30N 54°55' E 009°47'0 0.0
2014-Oct-24 04:30N 54°55' E 009°47'0 0.0
2014-Oct-24 03:33N 54°55' E 009°47'0 0.0
2014-Oct-24 02:33N 54°55' E 009°47'0 0.0
2014-Oct-24 01:33N 54°55' E 009°47'0 0.0
2014-Oct-24 00:33N 54°55' E 009°47'0 0.0
2014-Oct-23 23:21N 54°55' E 009°47'0 0.0
2014-Oct-23 22:33N 54°55' E 009°47'0 0.0
2014-Oct-23 21:24N 54°55' E 009°47'0 0.0
2014-Oct-23 20:24N 54°55' E 009°47'0 0.0
2014-Oct-23 19:27N 54°55' E 009°47'0 0.0
2014-Oct-23 18:27N 54°55' E 009°47'0 0.0
2014-Oct-23 17:30N 54°55' E 009°47'0 0.0
2014-Oct-23 16:27N 54°55' E 009°47'0 0.0
2014-Oct-23 15:30N 54°55' E 009°47'0 0.0
2014-Oct-23 14:33N 54°55' E 009°47'0 0.0
2014-Oct-23 13:33N 54°55' E 009°47'0 0.0
2014-Oct-23 12:33N 54°55' E 009°47'0 0.0
2014-Oct-23 11:33N 54°55' E 009°47'0 0.0
2014-Oct-23 10:33N 54°55' E 009°47'0 0.0
2014-Oct-23 09:33N 54°55' E 009°47'0 0.0
2014-Oct-23 08:33N 54°55' E 009°47'5 4.7
2014-Oct-23 07:33N 54°50' E 009°49'8 7.4
2014-Oct-23 06:29N 54°53' E 009°36'9 2.2
2014-Oct-23 02:33N 54°50' E 009°50'21 1.3
2014-Oct-22 10:21N 55°11' E 009°48'1110.8
2014-Oct-22 09:19N 55°04' E 010°03'18 9.6
2014-Oct-22 07:26N 54°46' E 010°03'1010.2
2014-Oct-22 06:25N 54°52' E 009°48'4 0.7
2014-Oct-22 00:33N 54°54' E 009°43'0 0.0
2014-Oct-21 23:32N 54°54' E 009°43'3 0.4
2014-Oct-21 17:33N 54°53' E 009°47'1611.7
2014-Oct-21 16:12N 54°42' E 010°08'812.2
2014-Oct-21 15:33N 54°35' E 010°14'1010.5
2014-Oct-21 14:33N 54°25' E 010°13'5 4.8
2014-Oct-21 13:33N 54°22' E 010°06'8 8.3
2014-Oct-21 12:33N 54°22' E 009°52'38 7.2
2014-Oct-21 07:19N 53°54' E 009°09'1 1.8
2014-Oct-21 06:33N 53°53' E 009°06'5 5.4
2014-Oct-21 05:33N 53°51' E 008°58'8 8.4
2014-Oct-21 04:33N 53°52' E 008°44'9 8.5
2014-Oct-21 03:33N 53°58' E 008°34'9 8.7
2014-Oct-21 02:33N 53°60' E 008°19'1010.2
2014-Oct-21 01:33N 53°58' E 008°02'7811.2
2014-Oct-20 18:32N 53°39' E 005°54'1313.1
2014-Oct-20 17:34N 53°35' E 005°33'1413.5
2014-Oct-20 16:34N 53°30' E 005°12'1413.7
2014-Oct-20 15:32N 53°25' E 004°50'30 9.6
2014-Oct-20 12:23N 52°55' E 004°40'5 5.1
2014-Oct-20 11:27N 52°58' E 004°47'0 0.0
2014-Oct-20 10:33N 52°58' E 004°47'2 1.6
2014-Oct-20 09:33N 52°59' E 004°45'2 1.3
2014-Oct-20 08:19N 52°58' E 004°47'0 0.0
2014-Oct-20 07:31N 52°58' E 004°47'0 0.0
2014-Oct-20 06:31N 52°58' E 004°47'0 0.0
2014-Oct-20 05:22N 52°58' E 004°47'0 0.0
2014-Oct-20 04:25N 52°58' E 004°47'0 0.0
2014-Oct-20 03:25N 52°58' E 004°47'0 0.0
2014-Oct-20 02:25N 52°58' E 004°47'0 0.0
2014-Oct-20 01:28N 52°58' E 004°47'0 0.0
2014-Oct-20 00:28N 52°58' E 004°47'0 0.0
2014-Oct-19 23:28N 52°58' E 004°47'0 0.0
2014-Oct-19 22:31N 52°58' E 004°47'0 0.0
2014-Oct-19 21:31N 52°58' E 004°47'0 0.0
2014-Oct-19 20:31N 52°58' E 004°47'0 0.0
2014-Oct-19 19:28N 52°58' E 004°47'0 0.0
2014-Oct-19 18:31N 52°58' E 004°47'0 0.0
2014-Oct-19 17:31N 52°58' E 004°47'0 0.0
2014-Oct-19 16:31N 52°58' E 004°47'0 0.0
2014-Oct-19 15:07N 52°58' E 004°47'0 0.0
2014-Oct-19 14:22N 52°58' E 004°47'0 0.0
2014-Oct-19 13:31N 52°58' E 004°47'0 0.0
2014-Oct-19 12:25N 52°58' E 004°47'0 0.0
2014-Oct-19 11:25N 52°58' E 004°47'0 0.0
2014-Oct-19 09:28N 52°58' E 004°47'0 0.0
2014-Oct-19 08:31N 52°58' E 004°47'0 0.0
2014-Oct-19 07:25N 52°58' E 004°47'0 0.0
2014-Oct-19 06:31N 52°58' E 004°47'0 0.0
2014-Oct-19 05:31N 52°58' E 004°47'0 0.0
2014-Oct-19 04:31N 52°58' E 004°47'0 0.0
2014-Oct-19 03:31N 52°58' E 004°47'0 0.0
2014-Oct-19 02:31N 52°58' E 004°47'0 0.0
2014-Oct-19 01:19N 52°58' E 004°47'0 0.0
2014-Oct-19 00:19N 52°58' E 004°47'0 0.0
2014-Oct-18 23:25N 52°58' E 004°47'0 0.0
2014-Oct-18 22:25N 52°58' E 004°47'0 0.0
2014-Oct-18 21:25N 52°58' E 004°47'0 0.0
2014-Oct-18 20:28N 52°58' E 004°47'0 0.0
2014-Oct-18 19:28N 52°58' E 004°47'0 0.0
2014-Oct-18 18:31N 52°58' E 004°47'0 0.0
2014-Oct-18 17:31N 52°58' E 004°47'0 0.0
2014-Oct-18 15:31N 52°58' E 004°47'0 0.0
2014-Oct-18 14:31N 52°58' E 004°47'0 0.0
2014-Oct-18 13:31N 52°58' E 004°47'0 0.0
2014-Oct-18 12:22N 52°58' E 004°47'0 0.0
2014-Oct-18 11:19N 52°58' E 004°47'0 0.0
2014-Oct-18 10:22N 52°58' E 004°47'0 0.0
2014-Oct-18 09:25N 52°58' E 004°47'0 0.0
2014-Oct-18 08:25N 52°58' E 004°47'0 0.0
2014-Oct-18 07:28N 52°58' E 004°47'0 0.0
2014-Oct-18 06:28N 52°58' E 004°47'0 0.0
2014-Oct-18 05:28N 52°58' E 004°47'0 0.0
2014-Oct-18 04:28N 52°58' E 004°47'0 0.0
2014-Oct-18 03:28N 52°58' E 004°47'0 0.0
2014-Oct-18 02:31N 52°58' E 004°47'0 0.0
2014-Oct-18 01:31N 52°58' E 004°47'0 0.0
2014-Oct-18 00:04N 52°58' E 004°47'0 0.0
2014-Oct-17 23:31N 52°58' E 004°47'0 0.0
2014-Oct-17 22:31N 52°58' E 004°47'0 0.0
2014-Oct-17 21:22N 52°58' E 004°47'0 0.0
2014-Oct-17 20:25N 52°58' E 004°47'0 0.0
2014-Oct-17 19:25N 52°58' E 004°47'0 0.0
2014-Oct-17 18:25N 52°58' E 004°47'0 0.0
2014-Oct-17 17:25N 52°58' E 004°47'0 0.0
2014-Oct-17 16:28N 52°58' E 004°47'0 0.0
2014-Oct-17 15:28N 52°58' E 004°47'0 0.0
2014-Oct-17 14:31N 52°58' E 004°47'2 1.6
2014-Oct-17 13:33N 52°59' E 004°47'0 0.3
2014-Oct-17 12:24N 52°59' E 004°48'3 3.0
2014-Oct-17 11:31N 52°58' E 004°44'2 1.5
2014-Oct-17 10:20N 52°58' E 004°47'0 0.0
2014-Oct-17 09:33N 52°58' E 004°47'2 1.9
2014-Oct-17 08:33N 52°58' E 004°44'2 2.3
2014-Oct-17 07:33N 52°59' E 004°47'1 0.6
2014-Oct-17 06:32N 52°59' E 004°47'2 1.9
2014-Oct-17 05:31N 52°58' E 004°47'0 0.0
2014-Oct-17 04:22N 52°58' E 004°47'0 0.0
2014-Oct-17 03:31N 52°58' E 004°47'0 0.0
2014-Oct-17 02:22N 52°58' E 004°47'0 0.0
2014-Oct-17 01:22N 52°58' E 004°47'0 0.0
2014-Oct-17 00:25N 52°58' E 004°47'0 0.0
2014-Oct-16 23:25N 52°58' E 004°47'0 0.0
2014-Oct-16 22:28N 52°58' E 004°47'0 0.0
2014-Oct-16 21:28N 52°58' E 004°47'0 0.0
2014-Oct-16 20:25N 52°58' E 004°47'0 0.0
2014-Oct-16 19:31N 52°58' E 004°47'0 0.0
2014-Oct-16 18:31N 52°58' E 004°47'0 0.0
2014-Oct-16 17:31N 52°58' E 004°47'0 0.0
2014-Oct-16 16:31N 52°58' E 004°47'0 0.0
2014-Oct-16 15:31N 52°58' E 004°47'0 0.0
2014-Oct-16 14:31N 52°58' E 004°47'1 1.3
2014-Oct-16 13:33N 52°59' E 004°46'1 1.0
2014-Oct-16 12:33N 52°58' E 004°47'1 1.0
2014-Oct-16 11:33N 52°59' E 004°46'2 1.4
2014-Oct-16 10:28N 52°58' E 004°47'0 0.2
2014-Oct-16 09:34N 52°58' E 004°47'1 1.0
2014-Oct-16 08:25N 52°58' E 004°46'1 1.2
2014-Oct-16 07:33N 52°58' E 004°47'2 1.6
2014-Oct-16 06:32N 52°59' E 004°47'2 1.7
2014-Oct-16 05:30N 52°58' E 004°47'0 0.0
2014-Oct-16 04:30N 52°58' E 004°47'0 0.0
2014-Oct-16 03:33N 52°58' E 004°47'0 0.0
2014-Oct-16 02:33N 52°58' E 004°47'0 0.0
2014-Oct-16 01:33N 52°58' E 004°47'0 0.0
2014-Oct-16 00:30N 52°58' E 004°47'0 0.0
2014-Oct-15 23:33N 52°58' E 004°47'0 0.0
2014-Oct-15 22:24N 52°58' E 004°47'0 0.0
2014-Oct-15 21:33N 52°58' E 004°47'0 0.0
2014-Oct-15 20:24N 52°58' E 004°47'0 0.0
2014-Oct-15 19:27N 52°58' E 004°47'0 0.0
2014-Oct-15 18:27N 52°58' E 004°47'0 0.0
2014-Oct-15 17:27N 52°58' E 004°47'0 0.0
2014-Oct-15 16:30N 52°58' E 004°47'0 0.0
2014-Oct-15 15:30N 52°58' E 004°47'0 0.0
2014-Oct-15 14:30N 52°58' E 004°47'0 0.3
2014-Oct-15 13:33N 52°58' E 004°47'0 0.2
2014-Oct-15 12:32N 52°57' E 004°48'0 0.2
2014-Oct-15 11:33N 52°58' E 004°47'0 0.2
2014-Oct-15 10:31N 52°58' E 004°47'0 0.2
2014-Oct-15 09:33N 52°58' E 004°47'0 0.3
2014-Oct-15 08:33N 52°57' E 004°48'0 0.2
2014-Oct-15 07:33N 52°57' E 004°47'0 0.4
2014-Oct-15 06:29N 52°58' E 004°47'0 0.0
2014-Oct-15 05:29N 52°58' E 004°47'0 0.0
2014-Oct-15 04:32N 52°58' E 004°47'0 0.0
2014-Oct-15 03:32N 52°58' E 004°47'  

Dump ship's entire track history